EW0349 Weather Reports


time (UTC)temp
C
wind
direction
speed
KPH
gust
KPH
rain 1hr
cm
rain 24hr
cm
rain mn
cm
humidity
%
barometer
mb
20260510001556 23 86 0.0 4.8 0.00 0.00 0.00 41 1014.7
20260510000054 24 65 1.6 8.0 0.00 0.00 0.00 42 1014.9
20260509234555 25 89 0.0 6.4 0.00 0.00 0.00 38 1014.9
20260509233043 23 71 0.0 4.8 0.00 0.00 0.00 39 1015.1
20260509231537 23 59 1.6 6.4 0.00 0.00 0.00 42 1015.3
20260509230031 23 310 0.0 8.0 0.00 0.00 0.00 41 1015.5
20260509224526 23 316 1.6 6.4 0.00 0.00 0.00 42 1015.7
20260509223023 23 217 1.6 8.0 0.00 0.00 0.00 42 1016.0
20260509221519 23 19 3.2 9.7 0.00 0.00 0.00 46 1016.1
20260509220013 22 57 1.6 8.0 0.00 0.00 0.00 48 1016.5
20260509214509 22 26 1.6 9.7 0.00 0.00 0.00 51 1016.8
20260509213005 22 50 1.6 4.8 0.00 0.00 0.00 48 1017.0
20260509211501 22 82 1.6 6.4 0.00 0.00 0.00 50 1017.1
20260509210056 21 22 3.2 6.4 0.00 0.00 0.00 54 1017.2
20260509204555 20 32 1.6 8.0 0.00 0.00 0.00 57 1017.3
20260509203047 20 103 1.6 8.0 0.00 0.00 0.00 53 1017.5
20260509201553 20 244 3.2 8.0 0.00 0.00 0.00 58 1017.7
20260509200050 20 302 1.6 11.3 0.00 0.00 0.00 58 1017.7
20260509194534 20 14 3.2 11.3 0.00 0.00 0.00 58 1018.0
20260509193036 19 319 1.6 4.8 0.00 0.00 0.00 60 1018.1
20260509191526 19 22 4.8 12.9 0.00 0.00 0.00 61 1018.3
20260509190023 19 24 3.2 9.7 0.00 0.00 0.00 59 1018.6
20260509184520 18 277 1.6 11.3 0.00 0.00 0.00 61 1018.7
20260509183012 18 305 1.6 8.0 0.00 0.00 0.00 60 1018.8
20260509181507 17 42 1.6 11.3 0.00 0.00 0.00 61 1019.0
20260509180002 17 17 0.0 6.4 0.00 0.00 0.00 62 1019.0
20260509174602 16 83 3.2 8.0 0.00 0.00 0.00 62 1019.2
20260509173106 16 21 1.6 9.7 0.00 0.00 0.00 63 1019.2
20260509171612 15 17 1.6 6.4 0.00 0.00 0.00 62 1019.3
20260509170046 15 120 3.2 8.0 0.00 0.00 0.00 63 1019.6
20260509164541 14 20 0.0 6.4 0.00 0.00 0.00 62 1019.7
20260509163037 13 57 1.6 4.8 0.00 0.00 0.00 62 1020.0
20260509161535 13 42 1.6 4.8 0.00 0.00 0.00 60 1020.2
20260509160028 13 34 0.0 4.8 0.00 0.00 0.00 59 1020.2
20260509154524 12 66 0.0 4.8 0.00 0.00 0.00 54 1020.3
20260509153021 12 69 1.6 4.8 0.00 0.00 0.00 49 1020.5
20260509151514 11 61 1.6 6.4 0.00 0.00 0.00 45 1020.8
20260509150010 11 360 0.0 8.0 0.00 0.00 0.00 37 1020.9
20260509144506 10 293 1.6 4.8 0.00 0.00 0.00 19 1020.9
20260509143003 9 282 0.0 3.2 0.00 0.00 0.00 100 1020.6
20260509141557 8 281 0.0 0.0 0.00 0.00 0.00 100 1020.7
20260509140052 7 281 0.0 1.6 0.00 0.00 0.00 100 1020.7
20260509134549 6 282 0.0 0.0 0.00 0.00 0.00 4 1020.7
20260509133047 6 282 0.0 1.6 0.00 0.00 0.00 11 1020.7
20260509131542 6 282 0.0 1.6 0.00 0.00 0.00 14 1020.6
20260509130037 6 281 0.0 0.0 0.00 0.00 0.00 16 1020.6
20260509124547 6 281 0.0 1.6 0.00 0.00 0.00 17 1020.8
20260509123031 6 281 0.0 1.6 0.00 0.00 0.00 18 1020.8
20260509121533 6 281 0.0 1.6 0.00 0.00 0.00 21 1020.9
20260509120027 7 281 0.0 0.0 0.00 0.00 0.00 20 1020.9
20260509114525 7 281 0.0 0.0 0.00 0.00 0.00 22 1021.0
20260509113024 7 281 0.0 0.0 0.00 0.00 0.00 22 1021.0
20260509111523 7 281 0.0 0.0 0.00 0.00 0.00 23 1020.9
20260509110019 7 281 0.0 0.0 0.00 0.00 0.00 25 1021.1
20260509104529 7 281 0.0 0.0 0.00 0.00 0.00 25 1021.2
20260509103016 7 281 0.0 1.6 0.00 0.00 0.00 26 1021.3
20260509101517 8 281 0.0 0.0 0.00 0.00 0.00 29 1021.3
20260509100024 8 281 0.0 0.0 0.00 0.00 0.00 34 1021.3
20260509094517 8 281 0.0 0.0 0.00 0.00 0.00 35 1021.4
20260509093007 8 281 0.0 0.0 0.00 0.00 0.00 37 1021.4
20260509091505 8 281 0.0 0.0 0.00 0.00 0.00 39 1021.5
20260509090002 9 281 0.0 0.0 0.00 0.00 0.00 42 1021.5
20260509084602 9 281 0.0 0.0 0.00 0.00 0.00 44 1021.6
20260509083056 9 281 0.0 0.0 0.00 0.00 0.00 48 1021.7
20260509081553 10 281 0.0 0.0 0.00 0.00 0.00 52 1021.9
20260509080056 10 281 0.0 0.0 0.00 0.00 0.00 56 1021.8
20260509074548 10 281 0.0 0.0 0.00 0.00 0.00 58 1021.8
20260509073051 11 281 0.0 0.0 0.00 0.00 0.00 60 1021.9
20260509071552 11 281 0.0 0.0 0.00 0.00 0.00 63 1021.9
20260509070042 11 281 0.0 3.2 0.00 0.00 0.00 65 1021.9
20260509064540 12 281 0.0 0.0 0.00 0.00 0.00 66 1021.9
20260509063041 12 281 0.0 1.6 0.00 0.00 0.00 67 1021.9
20260509061547 12 281 0.0 1.6 0.00 0.00 0.00 69 1021.9
20260509060039 12 281 0.0 3.2 0.00 0.00 0.00 69 1021.9
20260509054548 13 281 0.0 3.2 0.00 0.00 0.00 69 1022.1
20260509053038 13 273 0.0 6.4 0.00 0.00 0.00 69 1021.9
20260509051539 13 250 1.6 6.4 0.00 0.00 0.00 68 1021.8
20260509050049 14 216 1.6 6.4 0.00 0.00 0.00 68 1021.7
20260509044545 14 183 0.0 4.8 0.00 0.00 0.00 68 1021.7
20260509043036 14 182 0.0 1.6 0.00 0.00 0.00 68 1021.6
20260509041536 15 184 0.0 3.2 0.00 0.00 0.00 68 1021.3
20260509040038 15 225 0.0 3.2 0.00 0.00 0.00 67 1021.3
20260509034540 15 256 0.0 6.4 0.00 0.00 0.00 67 1021.2
20260509033035 15 295 0.0 4.8 0.00 0.00 0.00 66 1021.1
20260509031535 16 289 0.0 4.8 0.00 0.00 0.00 65 1021.0
20260509030035 16 299 0.0 8.0 0.00 0.00 0.00 64 1020.8
20260509024533 17 284 1.6 6.4 0.00 0.00 0.00 61 1020.7
20260509023038 17 288 1.6 4.8 0.00 0.00 0.00 59 1020.6
20260509021533 18 273 0.0 8.0 0.00 0.00 0.00 58 1020.6
20260509020031 18 299 0.0 4.8 0.00 0.00 0.00 56 1020.6
20260509014531 18 302 1.6 8.0 0.00 0.00 0.00 57 1020.7
20260509013045 18 265 1.6 6.4 0.00 0.00 0.00 55 1020.8
20260509011533 19 284 1.6 9.7 0.00 0.00 0.00 55 1020.8
20260509010030 19 313 0.0 4.8 0.00 0.00 0.00 56 1021.0
20260509004532 18 272 3.2 8.0 0.00 0.00 0.00 55 1021.1
20260509003032 18 278 3.2 12.9 0.00 0.00 0.00 54 1021.1